Theta_e
315 316 317 318 319 319 319 320 321 323 326 329 330 331 332 333 333 333 333 333 332 331 329 328 328 327 326 325 325 324 323 322 321 321 321 321 322 322 321 320 320 321 320
315 314 316 316 316 318 319 319 320 322 326 325 329 331 331 332 332 332 333 333 333 333 332 332 331 330 328 326 325 324 323 322 322 322 322 323 324 323 323 322 321 320 319
316 314 314 315 315 315 315 316 319 321 322 326 327 328 331 332 332 331 331 331 331 331 331 331 332 331 329 328 327 326 324 324 325 323 323 324 324 315 321 321 321 321 321
314 313 313 314 315 315 316 316 315 315 316 319 321 322 322 323 323 324 324 324 325 325 326 327 328 330 330 329 329 328 327 326 325 326 323 323 325 325 326 325 322 322 321
313 313 313 315 315 316 316 315 315 315 315 315 315 315 314 315 315 315 315 315 315 314 314 314 316 325 329 329 329 329 329 328 327 327 327 324 323 324 324 326 324 324 323
313 313 314 315 315 315 315 315 315 315 315 315 315 314 314 314 314 314 314 314 314 314 314 313 313 313 315 322 327 328 330 330 330 329 329 327 326 325 325 325 325 325 325
312 312 312 313 314 314 314 315 315 314 314 314 314 314 314 314 313 313 313 313 312 311 310 309 309 309 310 311 312 315 322 327 328 328 327 328 328 328 327 327 327 328 327
312 312 311 313 314 314 313 313 312 313 313 312 313 313 313 313 312 312 311 311 309 308 307 307 306 306 306 306 307 310 311 314 318 319 321 324 325 326 326 327 327 328 327
312 312 311 313 313 312 311 312 312 312 312 312 312 312 311 310 309 309 307 306 305 305 304 305 305 306 307 307 306 308 309 310 311 312 313 316 319 321 323 324 325 325 326
311 311 311 312 311 311 311 312 311 310 309 309 308 308 308 307 306 305 304 303 303 303 303 304 305 306 306 307 307 308 308 309 310 311 312 313 315 316 319 321 322 323 323
311 310 310 310 310 310 310 309 308 307 306 305 305 305 304 304 303 302 301 300 300 301 302 303 304 305 305 305 305 306 306 307 308 310 309 312 313 314 316 317 319 319 320
310 309 308 309 309 309 308 306 305 304 303 303 303 302 301 301 299 298 297 297 297 298 298 300 301 301 300 302 304 305 305 306 304 305 307 310 311 312 313 314 315 316 316
309 306 305 307 308 307 305 303 302 301 300 300 299 299 297 296 295 294 294 293 294 295 296 297 297 297 299 301 300 303 303 302 303 304 307 308 308 307 308 310 311 312 313
307 304 305 306 306 304 302 301 299 298 297 297 296 295 293 292 291 290 290 290 291 293 293 293 293 295 298 296 299 301 299 302 302 306 303 302 302 303 306 307 308 309 311
306 305 306 304 303 301 299 298 297 296 295 294 293 291 289 288 288 288 289 289 290 290 291 291 291 292 295 294 298 296 296 299 302 299 297 298 298 300 304 300 301 305 306
305 308 305 302 300 299 297 296 295 294 292 292 290 288 287 287 287 287 288 288 288 288 289 289 290 292 290 292 294 294 295 300 298 296 295 297 297 301 297 295 298 301 303
308 306 302 300 299 297 296 295 293 291 289 289 287 287 287 286 286 286 287 287 287 287 288 288 289 288 289 290 291 293 293 292 293 293 292 293 297 296 293 294 297 296 298
305 302 300 298 297 295 294 292 290 288 287 287 287 286 286 286 286 286 286 286 286 286 286 287 287 287 287 288 290 292 290 288 289 291 291 294 295 294 294 295 295 295 297
301 300 298 297 295 292 291 289 287 287 286 286 286 286 286 285 285 285 285 285 285 285 286 286 286 286 286 288 290 289 288 289 290 290 291 293 294 294 294 294 294 296 297
300 298 297 295 292 289 288 287 286 286 285 285 285 285 285 285 285 285 285 285 285 285 285 285 285 285 286 287 288 288 289 289 289 290 291 292 292 292 292 293 294 296 298
298 296 294 291 289 287 287 286 286 285 285 285 285 285 285 285 284 284 284 284 284 284 284 284 284 285 286 287 288 288 289 289 290 290 291 290 290 290 291 293 295 296 296
295 293 291 289 287 287 286 285 285 284 284 285 285 285 284 284 284 284 284 284 284 284 284 284 285 285 286 287 287 288 289 289 289 290 289 289 289 291 292 293 294 294 294
292 290 289 288 287 286 285 284 284 284 284 284 284 284 284 283 283 284 283 283 283 283 284 284 285 286 286 286 287 288 288 289 289 288 289 288 290 290 290 290 292 292 290
289 288 287 286 286 285 285 284 284 284 284 284 284 283 283 283 283 283 283 283 283 283 284 285 285 286 286 286 287 287 287 287 288 288 287 287 287 287 287 288 289 290 289
289 287 286 285 285 285 284 284 284 284 284 283 283 283 283 283 283 283 283 283 283 284 285 285 285 285 286 286 287 287 287 288 287 286 286 286 285 285 286 287 288 289 289
287 286 285 285 284 284 284 284 284 284 283 283 283 283 283 283 283 282 282 282 283 284 284 284 285 285 285 286 285 286 287 287 284 284 285 284 284 284 285 286 287 288 289
Wind_Speed
1 12 17 18 19 19 14 11 14 5 22 26 27 28 30 32 32 33 31 31 31 31 32 34 36 37 38 40 37 36 33 35 31 28 28 31 39 43 45 39 42 47 48
6 10 17 20 24 24 23 19 14 17 7 18 24 19 18 22 30 29 28 28 29 30 31 33 36 37 38 37 36 34 30 28 25 17 14 7 18 28 34 37 40 42 38
7 8 12 19 22 25 25 24 22 20 18 8 9 13 11 9 11 13 17 19 21 24 27 31 35 36 35 35 34 33 30 27 27 29 15 3 6 2 13 20 24 30 33
6 6 9 17 20 22 24 26 27 27 25 22 19 16 12 9 10 12 12 13 13 15 16 19 25 32 35 35 38 35 34 28 24 24 30 35 27 7 10 21 19 23 30
7 6 7 13 17 20 23 24 26 28 27 27 25 23 21 18 17 18 19 20 19 19 20 21 21 19 25 32 34 34 30 29 28 27 25 23 26 30 12 12 13 25 30
6 5 8 13 16 18 20 21 24 25 25 25 25 25 23 22 22 22 22 22 23 23 25 26 26 24 22 23 26 30 30 31 30 30 28 26 12 10 10 11 13 15 30
7 6 6 8 11 15 16 17 20 23 23 24 26 24 23 22 22 21 22 23 25 25 27 27 28 28 28 28 26 25 26 30 31 31 30 30 29 29 29 21 14 13 25
6 6 6 7 9 11 14 17 21 23 23 22 22 21 20 21 21 22 23 23 24 25 27 27 28 28 29 30 31 31 29 27 27 29 29 28 29 31 32 27 15 16 14
6 7 6 8 9 14 16 18 19 21 23 23 22 23 22 23 23 23 23 25 26 28 30 31 31 31 31 31 32 30 31 31 29 31 30 29 28 28 28 29 28 15 18
6 5 4 6 11 17 17 19 19 20 20 20 20 20 21 22 23 24 26 28 30 31 31 31 31 31 32 33 34 31 31 31 30 29 30 31 28 28 27 27 28 28 18
7 5 4 11 17 16 18 17 18 19 19 19 19 19 20 22 24 27 28 29 29 29 28 28 28 28 29 30 31 31 30 29 29 29 29 30 29 28 28 27 27 27 27
7 5 9 17 16 15 15 16 16 17 16 17 18 20 21 24 27 30 30 31 30 31 30 28 28 28 30 29 29 31 30 26 31 28 28 27 27 28 28 27 28 29 30
7 7 8 10 12 12 12 13 14 15 16 17 20 20 22 26 27 28 29 30 31 31 31 30 30 31 30 30 30 29 29 30 30 30 28 27 25 27 28 29 28 30 31
8 7 6 8 10 10 10 12 12 14 16 17 18 19 23 26 27 29 30 31 31 30 31 31 33 32 30 34 29 31 33 29 31 25 23 24 25 27 29 30 28 29 31
7 7 6 5 7 9 9 9 12 15 16 16 15 20 23 25 27 30 30 31 30 30 30 32 33 34 31 30 34 37 38 36 31 26 25 24 28 27 25 30 33 32 29
7 7 6 7 7 6 6 8 9 11 12 13 17 22 26 29 30 31 31 32 32 33 33 32 32 33 33 35 37 40 40 31 25 27 30 29 29 25 34 32 31 32 33
8 7 6 7 6 4 5 7 9 10 13 14 19 24 27 28 28 29 30 29 30 31 31 31 31 33 34 34 38 37 29 28 27 28 31 34 29 30 38 35 34 36 33
6 5 6 5 4 3 4 6 9 12 16 18 23 26 27 27 28 27 27 30 28 29 30 30 31 31 33 35 37 29 32 30 29 27 30 31 28 31 34 36 38 39 39
7 7 6 3 3 3 5 9 12 17 22 22 23 25 26 28 28 28 30 30 29 29 29 29 31 33 34 33 28 37 34 31 31 31 32 30 32 31 35 36 36 40 42
10 6 4 3 3 7 10 13 16 18 20 21 22 24 25 27 29 28 29 28 28 29 30 31 30 31 34 32 34 34 30 29 29 29 29 29 33 37 39 38 37 33 34
10 7 4 4 7 8 11 13 15 17 18 19 22 24 25 27 25 27 28 29 30 28 28 29 30 31 28 32 32 33 32 28 28 27 28 30 37 41 43 39 33 29 41
7 5 3 5 5 7 10 12 14 18 19 21 24 26 27 27 26 28 30 27 27 26 27 27 27 25 28 29 31 32 31 33 31 28 30 33 40 44 39 32 31 35 36
6 4 3 2 5 7 9 13 18 19 21 23 26 27 28 27 25 25 26 25 23 23 24 24 25 27 29 31 30 31 33 33 33 29 34 38 38 32 30 31 35 33 27
5 3 1 4 7 9 12 15 18 20 22 24 27 27 24 23 23 23 22 23 23 23 23 24 24 26 28 27 28 29 31 31 30 30 32 32 31 30 31 31 28 26 27
4 2 3 6 9 12 16 18 20 21 23 25 24 22 21 22 23 24 25 25 25 23 27 27 28 26 26 28 35 36 34 32 31 37 27 26 27 27 27 28 28 28 28
2 3 6 8 12 14 18 21 21 21 23 23 21 22 22 22 24 25 29 27 26 28 28 29 28 29 29 32 35 34 33 30 34 29 22 22 25 24 26 27 28 30 29
Wind_Direction
22 50 46 46 51 50 49 47 47 0 241 235 237 239 238 242 247 253 259 263 267 270 267 267 270 270 268 267 266 266 261 261 263 267 270 268 270 268 265 263 265 264 263
39 28 35 41 46 52 52 52 50 38 23 237 238 238 253 258 261 263 265 270 273 276 276 276 277 275 271 268 265 259 256 256 256 246 257 274 274 262 265 262 258 258 257
58 28 23 35 42 44 46 50 53 53 53 53 234 245 253 268 290 297 293 295 294 290 287 284 280 279 271 266 264 262 251 255 259 251 236 276 241 325 266 250 261 266 266
53 40 27 36 43 47 51 52 52 52 52 55 60 60 53 34 5 360 353 352 347 336 325 312 297 284 276 268 269 264 255 250 252 256 241 243 254 262 278 270 272 272 269
85 61 44 54 53 51 49 50 52 52 51 54 55 54 51 42 34 28 24 23 19 17 14 8 360 330 297 278 272 270 258 251 248 249 253 242 248 251 255 270 273 271 269
111 94 72 63 56 54 53 52 52 49 46 46 45 42 39 33 30 26 24 23 19 15 11 5 5 4 354 331 303 290 277 269 269 261 260 256 247 244 244 253 257 257 274
138 110 90 69 61 55 52 52 51 49 48 48 46 42 43 41 38 30 21 15 9 4 0 357 353 350 346 342 339 330 313 297 287 287 284 276 266 264 264 263 268 269 269
137 138 133 104 69 55 47 50 59 55 45 40 39 37 36 32 29 22 16 11 5 359 353 351 348 345 342 340 339 336 330 319 308 304 303 298 290 280 274 273 280 280 275
165 156 136 93 73 54 64 72 64 52 44 40 37 35 30 24 18 12 9 4 358 352 347 345 342 339 337 336 335 331 326 324 319 315 311 303 300 295 287 280 274 273 286
161 142 132 113 79 89 77 67 56 49 41 36 32 26 20 16 10 5 1 356 351 348 345 342 340 337 336 335 332 325 322 320 318 313 313 308 305 303 298 290 285 280 279
169 167 132 91 99 83 73 62 48 39 32 27 23 17 12 8 4 1 357 354 349 347 343 339 336 333 331 328 325 322 319 316 317 323 316 310 312 309 306 301 296 292 289
167 123 105 108 95 84 70 57 45 35 26 20 17 13 8 3 359 356 353 351 349 347 344 341 337 334 330 327 325 320 318 327 317 317 312 311 318 316 312 308 303 300 297
126 120 106 104 101 85 69 54 39 28 19 13 9 10 6 1 358 356 353 352 348 345 342 339 335 331 330 329 323 319 326 321 317 310 310 315 319 314 312 310 309 306 300
148 132 118 113 100 82 64 44 32 21 15 8 8 8 4 360 356 352 351 349 347 342 339 336 332 329 328 329 325 325 323 318 314 316 315 315 317 314 312 308 308 307 300
158 136 131 123 109 84 60 40 23 12 7 5 9 3 358 355 352 350 348 344 341 337 335 332 330 329 327 324 323 326 324 319 310 314 316 316 321 319 318 320 313 313 313
145 134 134 123 100 92 65 32 16 9 5 8 2 359 356 353 351 348 345 341 339 336 333 331 327 326 323 322 321 323 323 322 322 323 326 322 321 315 323 317 313 313 309
153 151 136 138 131 98 40 21 7 6 7 4 360 357 353 349 345 342 338 335 332 329 326 323 323 320 319 318 319 323 335 329 323 324 325 319 316 323 324 319 315 315 311
132 127 140 109 101 54 28 15 10 4 3 2 357 353 348 343 339 335 331 330 329 325 321 320 319 317 315 316 321 330 332 327 321 322 322 316 318 322 320 318 316 313 310
130 141 138 128 113 18 19 17 5 3 360 356 349 345 342 337 334 330 329 326 322 319 317 318 317 316 315 318 324 331 331 326 324 323 319 314 315 315 318 317 312 306 304
133 130 124 104 53 27 16 8 1 356 351 343 336 336 336 335 328 327 322 319 318 316 316 313 314 314 314 325 321 324 323 319 318 316 315 315 316 315 316 314 305 300 309
150 140 134 84 46 22 3 358 347 344 336 331 329 331 334 332 325 319 321 319 315 314 312 312 313 312 316 316 320 322 321 316 317 321 318 316 315 314 312 308 303 315 314
133 123 100 69 30 359 354 341 334 333 332 330 329 331 332 328 322 323 321 316 314 314 313 312 313 315 316 317 319 321 321 323 325 319 316 313 315 311 309 314 316 317 318
126 118 87 8 354 353 343 331 332 335 333 330 328 328 328 325 324 319 314 314 315 312 312 314 315 316 317 315 318 320 322 327 322 320 317 321 318 320 318 320 320 319 316
146 151 51 339 336 335 330 333 336 337 332 327 325 322 315 319 319 318 314 312 311 313 312 313 313 313 312 313 316 322 325 324 326 324 326 322 325 322 317 316 317 318 316
170 87 335 321 319 326 328 334 336 335 328 324 318 314 316 317 317 315 312 310 307 309 314 315 314 314 314 316 320 325 324 328 331 329 326 326 327 321 319 318 321 321 320
119 319 312 314 318 325 325 330 332 330 325 319 316 313 314 313 313 312 310 309 310 315 316 315 316 317 315 318 322 324 325 332 335 332 321 325 321 318 319 321 319 321 323